[[{"header":{"parameterUnit":"m.s-1","parameterCategory":1,"la1":30.2991,"la2":30.254,"lo1":-89.0895,"lo2":-89.0444,"dy":0.0017,"dx":0.0017,"nx":28,"ny":28,"refTime":"2024-05-27T09:00:00:Z","depth":0,"parameterNumber":2,"parameterNumberName":"U-component_of_WINDS"},"data":[0,0,0,0,0,0,0,0,0,0,0,0,0,0,0,0,0,0,0,0,0,0,0,0,0,0,0,0,0,0,0,0,0,0,0,0,0,0,0,0,0,0,0,0,0,0,0,0,0,0,0,0,0,0,0,0,0,0,1.9086,1.9086,0,1.9121,1.9121,1.9122,1.9108,1.9108,1.9107,1.9106,1.9141,1.9143,1.9144,0,0,0,0,0,0,0,0,0,0,0,0,0,1.9005,1.9007,1.9086,1.9086,1.9087,1.9121,1.9121,1.9122,1.9108,1.9108,1.9107,1.9106,1.914,1.9142,1.9144,0,0,0,0,0,0,0,0,0,0,0,0,0,1.904,1.9007,1.9086,1.9084,1.9084,1.9121,1.9121,1.9122,1.9109,1.9107,1.9106,1.9105,1.914,1.9142,1.9145,1.9184,0,0,1.9152,1.9153,0,0,0,0,0,0,0,0,1.9038,1.9043,1.9084,1.9084,1.9085,1.9109,1.9106,1.9143,1.9109,1.9099,1.9106,1.9105,1.9131,1.9134,1.9143,1.9186,1.9187,1.9152,1.9154,1.9155,1.9156,0,0,0,0,0,0,0,1.9036,1.9042,1.91,1.9085,1.9085,1.9081,1.9085,1.9113,1.9122,1.91,1.9099,1.9104,1.9131,1.9141,1.9144,1.9188,1.9152,1.9155,1.9156,1.9157,1.9262,1.9263,0,0,0,0,0,0,1.9034,1.904,1.9098,1.9101,1.9058,1.9083,1.9088,1.9102,1.9121,1.9123,1.9105,1.9103,1.9137,1.9141,1.9145,1.9191,1.9155,1.9157,1.9159,1.926,1.9262,1.9263,0,0,0,0,0,0,1.9032,1.9039,1.9097,1.907,1.9077,1.9086,1.9103,1.9104,1.9114,1.9125,1.9126,1.9113,1.9137,1.9142,1.9174,1.9192,1.9159,1.9161,1.9259,1.9261,1.9262,1.9284,0,0,0,0,0,0,1.903,1.9038,1.9054,1.907,1.9079,1.9126,1.9104,1.9105,1.9118,1.9116,1.9133,1.9135,1.9136,1.917,1.9177,1.9195,1.9163,1.9257,1.926,1.9262,1.9281,1.9286,1.929,0,0,0,0,0,1.9027,1.9059,1.9055,1.9062,1.9099,1.9127,1.9132,1.9133,1.912,1.9135,1.9142,1.9134,1.9189,1.9174,1.9181,1.92,1.9256,1.9259,1.9262,1.9279,1.9285,1.929,0,0,0,0,0,0,1.9045,1.9061,1.9057,1.9096,1.911,1.9125,1.9144,1.9139,1.9157,1.9155,1.9155,1.9159,1.9192,1.9199,1.9182,1.9238,1.9221,1.9225,1.9232,1.9237,1.9241,1.9238,1.9165,0,0,0,0,0,1.9053,1.9076,1.9089,1.9121,1.9129,1.9135,1.9148,1.9147,1.9162,1.9168,1.9177,1.9191,1.9212,1.9225,1.9245,1.9283,1.9285,1.9299,1.9304,1.9307,1.931,1.9329,1.9335,1.9273,1.9272,1.9272,0,0,1.9071,1.9083,1.9097,1.9125,1.9136,1.9158,1.914,1.9165,1.9181,1.9172,1.9202,1.9209,1.9225,1.926,1.9276,1.9267,1.9328,1.9311,1.9313,1.9315,1.9332,1.9338,1.9343,1.9274,1.9274,1.9274,0,0,1.9114,1.9126,1.9153,1.9164,1.9181,1.9185,1.9192,1.9207,1.9211,1.9242,1.9235,1.9254,1.9289,1.93,1.931,1.9356,1.9349,1.9362,1.9384,1.9402,1.9407,1.9412,1.9426,1.9431,1.9366,1.9366,1.9366,0,1.9133,1.9167,1.9168,1.9193,1.9204,1.9197,1.9224,1.9235,1.9257,1.9265,1.9255,1.9298,1.9309,1.9345,1.9356,1.9365,1.9371,1.936,1.9407,1.9411,1.9415,1.9429,1.9434,1.9367,1.9367,1.9367,1.9367,0,1.9189,1.9212,1.9232,1.9253,1.9268,1.9294,1.9297,1.9312,1.931,1.9314,1.9344,1.9356,1.9377,1.9386,1.9385,1.9421,1.9415,1.9407,1.9389,1.9422,1.9435,1.944,1.9369,1.9369,1.9368,1.9368,0,0,1.9244,1.9265,1.9272,1.9281,1.9298,1.9316,1.934,1.9361,1.9372,1.9387,1.9407,1.9437,1.9428,1.9439,1.9439,1.9455,1.9488,1.9444,1.9444,1.945,1.9527,1.9532,1.9538,1.9484,1.9485,1.9486,1.9525,0,1.9287,1.933,1.9331,1.9371,1.9391,1.9384,1.9405,1.9417,1.9422,1.9439,1.9444,1.9465,1.9453,1.9459,1.9475,1.948,1.9503,1.9478,1.9501,1.9501,1.9495,1.9545,1.9552,1.9588,1.953,1.9531,1.9531,0,1.9343,1.9359,1.94,1.9413,1.9422,1.9441,1.9458,1.9476,1.9489,1.9491,1.9503,1.95,1.9524,1.9507,1.9539,1.9522,1.9531,1.9535,1.9537,1.9537,1.9517,1.9546,1.96,1.9605,1.954,1.9539,1.9538,0,1.9376,1.9409,1.9437,1.9445,1.9461,1.9475,1.9482,1.9494,1.9506,1.9521,1.9528,1.9546,1.9556,1.957,1.9571,1.9558,1.9603,1.9586,1.9604,1.9604,1.9612,1.9611,1.9667,1.9621,1.9621,1.9621,1.9621,0,1.9423,1.9448,1.9452,1.9469,1.9497,1.9497,1.9524,1.953,1.9541,1.9559,1.9554,1.957,1.9572,1.9589,1.959,1.9615,1.962,1.9621,1.9621,1.9621,1.962,1.9626,1.9623,1.9622,1.9622,1.9622,1.9622,0,1.9464,1.9469,1.9499,1.9511,1.9515,1.9534,1.9544,1.956,1.9564,1.9586,1.9592,1.9598,1.9617,1.962,1.9643,1.9644,1.9673,1.9671,1.9669,1.9668,1.9685,1.9683,1.9745,1.9752,1.9703,1.9704,1.9704,0,1.9493,1.9512,1.9526,1.9537,1.9545,1.9564,1.9575,1.9576,1.9588,1.9604,1.9618,1.9637,1.9651,1.9682,1.9688,1.9705,1.9703,1.9723,1.9705,1.9704,1.9701,1.9699,1.97,1.9726,1.9727,1.9727,1.9727,0,1.9543,1.9543,1.956,1.9577,1.9591,1.9605,1.9618,1.9627,1.963,1.9643,1.9662,1.9674,1.9697,1.9715,1.9731,1.9738,1.9733,1.9733,1.9738,1.9737,1.9734,1.9734,1.9676,1.9731,1.9731,1.9731,1.9731,1.973,1.9577,1.9593,1.9605,1.9623,1.9633,1.9645,1.966,1.9665,1.9682,1.97,1.97,1.972,1.9732,1.9754,1.9761,1.9777,1.977,1.9778,1.9779,1.9781,1.9781,1.9733,1.978,1.978,1.978,1.978,1.978,0,1.9625,1.9632,1.9649,1.9667,1.9681,1.9675,1.9689,1.97,1.9719,1.973,1.9745,1.9766,1.9783,1.979,1.9807,1.9818,1.9816,1.9822,1.9821,1.9822,1.9788,1.9781,1.9824,1.9824,1.9824,1.9824,1.9823,1.9823,1.9651,1.9677,1.9679,1.9709,1.9716,1.9736,1.9744,1.9754,1.9763,1.9787,1.9801,1.9806,1.9815,1.9832,1.9847,1.9849,1.9854,1.9861,1.9861,1.9829,1.9825,1.982,1.9814,1.9863,1.9863,1.9894,1.9894,1.9895]},{"header":{"parameterUnit":"m.s-1","parameterCategory":1,"la1":30.2991,"la2":30.254,"lo1":-89.0895,"lo2":-89.0444,"dy":0.0017,"dx":0.0017,"nx":28,"ny":28,"refTime":"2024-05-27T09:00:00:Z","depth":0,"parameterNumber":3,"parameterNumberName":"V-component_of_WINDS"},"data":[0,0,0,0,0,0,0,0,0,0,0,0,0,0,0,0,0,0,0,0,0,0,0,0,0,0,0,0,0,0,0,0,0,0,0,0,0,0,0,0,0,0,0,0,0,0,0,0,0,0,0,0,0,0,0,0,0,0,4.7432,4.7432,0,4.7446,4.7446,4.7447,4.74,4.7399,4.7397,4.7396,4.741,4.7411,4.7413,0,0,0,0,0,0,0,0,0,0,0,0,0,4.736,4.7362,4.7432,4.7432,4.7432,4.7446,4.7446,4.7447,4.7401,4.7399,4.7397,4.7396,4.7409,4.7411,4.7413,0,0,0,0,0,0,0,0,0,0,0,0,0,4.7385,4.7362,4.7432,4.7411,4.7409,4.7446,4.7446,4.7447,4.7401,4.7399,4.7397,4.7395,4.7408,4.7411,4.7413,4.7471,0,0,4.7421,4.7422,0,0,0,0,0,0,0,0,4.7383,4.7387,4.7414,4.7412,4.741,4.7419,4.7426,4.7455,4.7401,4.7404,4.7396,4.7394,4.7414,4.7416,4.7424,4.7471,4.7472,4.7421,4.7423,4.7424,4.7424,0,0,0,0,0,0,0,4.7382,4.7387,4.7437,4.7414,4.7412,4.74,4.7401,4.7431,4.7421,4.7404,4.74,4.7403,4.7413,4.7421,4.7424,4.7472,4.7421,4.7423,4.7425,4.7426,4.7565,4.7567,0,0,0,0,0,0,4.7383,4.7385,4.7437,4.7438,4.7391,4.7403,4.7404,4.7419,4.742,4.7419,4.7404,4.74,4.7418,4.7421,4.7424,4.7489,4.7424,4.7426,4.7427,4.7563,4.7566,4.7568,0,0,0,0,0,0,4.7382,4.7388,4.7436,4.7411,4.7416,4.7406,4.7423,4.742,4.7428,4.7421,4.7419,4.7415,4.7416,4.742,4.7459,4.7489,4.7427,4.7429,4.756,4.7564,4.7567,4.7622,0,0,0,0,0,0,4.738,4.7388,4.7411,4.7412,4.7417,4.7472,4.7425,4.7422,4.7433,4.7428,4.743,4.7429,4.7415,4.7455,4.7461,4.7492,4.7431,4.7558,4.7562,4.7566,4.7618,4.7627,4.7635,0,0,0,0,0,4.7378,4.7426,4.7412,4.7419,4.7446,4.7474,4.7477,4.7461,4.7435,4.7457,4.7452,4.7429,4.7485,4.746,4.7466,4.7497,4.7556,4.7561,4.7566,4.7614,4.7625,4.7635,0,0,0,0,0,0,4.7429,4.7426,4.741,4.746,4.7468,4.7466,4.7493,4.7474,4.7489,4.7483,4.7462,4.7463,4.7505,4.7505,4.7477,4.7552,4.7516,4.7522,4.755,4.7561,4.757,4.7568,4.7433,0,0,0,0,0,4.7446,4.747,4.7466,4.751,4.7515,4.7504,4.7515,4.7502,4.7509,4.7512,4.751,4.7517,4.7535,4.7549,4.7566,4.7618,4.7616,4.7642,4.7651,4.7658,4.7663,4.7689,4.7699,4.7584,4.7584,4.7584,0,0,4.7481,4.7483,4.7499,4.752,4.7525,4.7549,4.7507,4.7534,4.7552,4.7516,4.7552,4.7551,4.7556,4.7601,4.7621,4.7603,4.7695,4.7665,4.767,4.7672,4.7695,4.7706,4.7715,4.7588,4.7587,4.7587,0,0,4.7558,4.7562,4.7598,4.7603,4.761,4.7602,4.7611,4.7612,4.761,4.7646,4.7619,4.7639,4.7673,4.7677,4.7684,4.7761,4.7739,4.7767,4.7812,4.7837,4.7846,4.7854,4.7879,4.7889,4.7773,4.7773,4.7773,0,4.7601,4.7637,4.762,4.7649,4.7658,4.7627,4.7662,4.7668,4.768,4.7687,4.7666,4.7707,4.7709,4.7753,4.7772,4.7779,4.7787,4.7766,4.7846,4.7854,4.7861,4.7885,4.7895,4.7776,4.7776,4.7776,4.7775,0,4.7688,4.7713,4.7742,4.7754,4.7766,4.7799,4.7785,4.78,4.7786,4.7779,4.7815,4.7817,4.7833,4.7843,4.7829,4.7885,4.7873,4.785,4.7813,4.7876,4.7897,4.7907,4.7781,4.778,4.7779,4.7778,0,0,4.7797,4.7798,4.7809,4.7813,4.7817,4.7836,4.7866,4.7882,4.7894,4.7904,4.7927,4.7956,4.7934,4.7942,4.7929,4.7951,4.8009,4.7925,4.7924,4.7939,4.8068,4.8084,4.8095,4.7995,4.7997,4.7998,4.8067,0,4.787,4.7922,4.7907,4.7958,4.798,4.795,4.7976,4.7982,4.7976,4.7993,4.7988,4.8008,4.7978,4.7983,4.8003,4.7998,4.8034,4.7993,4.8015,4.8016,4.8013,4.8107,4.8124,4.8189,4.8075,4.8077,4.8078,0,4.7963,4.7975,4.8029,4.8028,4.8037,4.806,4.8072,4.809,4.8094,4.8089,4.8097,4.8079,4.8107,4.8071,4.8109,4.8081,4.8089,4.8088,4.809,4.809,4.8049,4.8107,4.8209,4.8218,4.8092,4.8091,4.809,0,4.8034,4.8064,4.81,4.8104,4.8105,4.8122,4.8123,4.8125,4.8135,4.8146,4.8152,4.8166,4.8173,4.8184,4.8169,4.8145,4.8208,4.8172,4.8203,4.8203,4.8216,4.8216,4.8319,4.8225,4.8225,4.8225,4.8225,0,4.8117,4.815,4.8131,4.8153,4.8189,4.8171,4.8207,4.8204,4.8206,4.8226,4.8202,4.8221,4.8201,4.8218,4.8207,4.8238,4.8243,4.8238,4.8234,4.8239,4.8239,4.8243,4.8237,4.8228,4.8227,4.8226,4.8226,0,4.8202,4.8191,4.8227,4.8224,4.8224,4.8251,4.8248,4.8267,4.826,4.8285,4.829,4.8279,4.8297,4.8284,4.8302,4.8295,4.8336,4.8327,4.8334,4.8331,4.8362,4.8359,4.847,4.8483,4.8383,4.8384,4.8385,0,4.8254,4.8279,4.8279,4.829,4.8292,4.8311,4.8321,4.8304,4.8315,4.8321,4.8339,4.8355,4.8367,4.8398,4.8391,4.8404,4.8394,4.8432,4.8396,4.8399,4.8392,4.839,4.8392,4.8439,4.844,4.8441,4.8442,0,4.8348,4.8341,4.8356,4.8368,4.8381,4.839,4.8397,4.8408,4.839,4.8403,4.8422,4.8431,4.8449,4.8465,4.8476,4.8476,4.8456,4.8454,4.8461,4.8466,4.8468,4.8465,4.8352,4.8451,4.845,4.8449,4.8449,4.8449,4.8417,4.8436,4.8439,4.8455,4.8459,4.8466,4.8483,4.8478,4.8493,4.8507,4.8496,4.8517,4.8519,4.8532,4.8534,4.855,4.8534,4.8546,4.8549,4.8551,4.8555,4.8467,4.8552,4.8552,4.8552,4.8552,4.8552,0,4.8507,4.8506,4.8522,4.8533,4.8546,4.8526,4.8533,4.8544,4.8564,4.8568,4.858,4.86,4.8615,4.8609,4.8622,4.8636,4.8627,4.864,4.8638,4.8637,4.8569,4.856,4.8647,4.8647,4.8647,4.8647,4.8647,4.8647,4.8555,4.8587,4.858,4.8613,4.8612,4.8632,4.8638,4.8643,4.8646,4.867,4.8682,4.8678,4.8678,4.8691,4.8703,4.8701,4.8706,4.8722,4.8716,4.8652,4.8643,4.8634,4.8625,4.8724,4.8724,4.8783,4.8783,4.8784]}]]